Location: Beccas
(43.4309°N, 0.1528°E)
Time: 10:31:05
(UTC+00:00)

Cosmos 724 - Pass Details

Date: 15 October 2021
Orbit: 857 x 937 km, 65.6° (Epoch: 07 December)

Event Time Altitude Azimuth Distance (km) Brightness Sun altitude
Rises 19:15:27 0° 328° (NNW) 3,535 8.0 -22.4°
Reaches altitude 10° 19:18:02 10° 332° (NNW) 2,578 7.2 -22.9°
Maximum altitude 19:23:58 64° 53° (NE) 978 4.3 -23.9°
Enters shadow 19:24:47 57° 93° (E) 1,029 4.2 -24.1°
